| time (UTC) | temp F | wind direction | speed MPH | gust MPH | rain 1hr in | rain 24hr in | rain mn in | humidity % | barometer mb |
| 20260506133549 | 61 | 0 | 0.0 | 5.0 | 0.00 | 0.00 | 0.00 | 85 | 1012.0 |
| 20260506133054 | 61 | 0 | 0.0 | 5.0 | 0.00 | 0.00 | 0.00 | 85 | 1012.0 |
| 20260506132548 | 62 | 0 | 0.0 | 0.0 | 0.00 | 0.00 | 0.00 | 85 | 1012.1 |
| 20260506132048 | 62 | 0 | 0.0 | 6.0 | 0.00 | 0.00 | 0.00 | 85 | 1012.0 |
| 20260506131554 | 62 | 0 | 0.0 | 9.0 | 0.00 | 0.00 | 0.00 | 84 | 1012.0 |
| 20260506131048 | 62 | 65 | 1.0 | 9.0 | 0.00 | 0.00 | 0.00 | 84 | 1011.9 |
| 20260506130547 | 62 | 161 | 1.0 | 6.0 | 0.00 | 0.00 | 0.00 | 84 | 1011.8 |
| 20260506130118 | 63 | 0 | 1.0 | 6.0 | 0.00 | 0.00 | 0.00 | 84 | 1011.8 |
| 20260506125544 | 63 | 0 | 1.0 | 10.0 | 0.00 | 0.00 | 0.00 | 84 | 1011.6 |
| 20260506125047 | 63 | 0 | 1.0 | 10.0 | 0.00 | 0.00 | 0.00 | 83 | 1011.3 |
| 20260506124550 | 63 | 0 | 0.0 | 4.0 | 0.00 | 0.00 | 0.00 | 83 | 1011.3 |
| 20260506124049 | 63 | 0 | 0.0 | 8.0 | 0.00 | 0.00 | 0.00 | 83 | 1011.2 |
| 20260506123548 | 64 | 0 | 1.0 | 8.0 | 0.00 | 0.00 | 0.00 | 83 | 1011.1 |
| 20260506123050 | 64 | 0 | 0.0 | 9.0 | 0.00 | 0.00 | 0.00 | 83 | 1011.1 |
| 20260506122547 | 64 | 0 | 1.0 | 9.0 | 0.00 | 0.00 | 0.00 | 82 | 1011.0 |
| 20260506122046 | 65 | 52 | 1.0 | 9.0 | 0.00 | 0.00 | 0.00 | 82 | 1011.0 |
| 20260506121553 | 65 | 0 | 1.0 | 8.0 | 0.00 | 0.00 | 0.00 | 82 | 1010.9 |
| 20260506121048 | 65 | 43 | 1.0 | 8.0 | 0.00 | 0.00 | 0.00 | 82 | 1010.9 |
| 20260506120545 | 66 | 0 | 1.0 | 6.0 | 0.00 | 0.00 | 0.00 | 81 | 1010.8 |
| 20260506120048 | 66 | 0 | 0.0 | 9.0 | 0.00 | 0.00 | 0.00 | 81 | 1010.7 |
| 20260506115545 | 67 | 37 | 2.0 | 9.0 | 0.00 | 0.00 | 0.00 | 81 | 1010.6 |
| 20260506115046 | 67 | 77 | 0.0 | 5.0 | 0.00 | 0.00 | 0.00 | 80 | 1010.5 |
| 20260506114548 | 67 | 0 | 0.0 | 6.0 | 0.00 | 0.00 | 0.00 | 81 | 1010.3 |
| 20260506114044 | 68 | 11 | 0.0 | 6.0 | 0.00 | 0.00 | 0.00 | 80 | 1010.3 |
| 20260506113544 | 68 | 0 | 1.0 | 6.0 | 0.00 | 0.00 | 0.00 | 81 | 1010.2 |
| 20260506113048 | 69 | 0 | 0.0 | 6.0 | 0.00 | 0.00 | 0.00 | 81 | 1010.1 |
| 20260506112546 | 69 | 0 | 1.0 | 6.0 | 0.00 | 0.00 | 0.00 | 82 | 1009.9 |
| 20260506112047 | 70 | 72 | 0.0 | 7.0 | 0.00 | 0.00 | 0.00 | 83 | 1009.9 |
| 20260506111546 | 71 | 51 | 0.0 | 7.0 | 0.00 | 0.00 | 0.00 | 84 | 1009.9 |
| 20260506111045 | 72 | 56 | 0.0 | 0.0 | 0.00 | 0.00 | 0.00 | 86 | 1009.7 |
| 20260506110548 | 73 | 0 | 0.0 | 0.0 | 0.00 | 0.00 | 0.00 | 87 | 1009.6 |
| 20260506105548 | 73 | 0 | 0.0 | 0.0 | 0.00 | 0.00 | 0.00 | 87 | 1009.5 |
| 20260506105048 | 73 | 0 | 0.0 | 0.0 | 0.00 | 0.00 | 0.00 | 87 | 1009.4 |
| 20260506104610 | 73 | 0 | 0.0 | 0.0 | 0.00 | 0.00 | 0.00 | 87 | 1009.4 |
| 20260506104044 | 73 | 0 | 0.0 | 0.0 | 0.00 | 0.00 | 0.00 | 87 | 1009.4 |
| 20260506103544 | 73 | 0 | 0.0 | 0.0 | 0.00 | 0.00 | 0.00 | 87 | 1009.2 |
| 20260506103053 | 73 | 0 | 0.0 | 0.0 | 0.00 | 0.00 | 0.00 | 87 | 1009.1 |
| 20260506102546 | 74 | 0 | 0.0 | 0.0 | 0.00 | 0.00 | 0.00 | 87 | 1009.0 |
| 20260506102045 | 74 | 0 | 0.0 | 0.0 | 0.00 | 0.00 | 0.00 | 87 | 1008.9 |
| 20260506101559 | 74 | 0 | 0.0 | 0.0 | 0.00 | 0.00 | 0.00 | 87 | 1008.9 |
| 20260506101045 | 74 | 0 | 0.0 | 0.0 | 0.00 | 0.00 | 0.00 | 87 | 1008.9 |
| 20260506100550 | 74 | 0 | 0.0 | 0.0 | 0.00 | 0.00 | 0.00 | 87 | 1008.9 |
| 20260506100053 | 74 | 0 | 0.0 | 0.0 | 0.00 | 0.00 | 0.00 | 87 | 1008.8 |
| 20260506095547 | 74 | 0 | 0.0 | 0.0 | 0.00 | 0.00 | 0.00 | 87 | 1008.9 |
| 20260506095045 | 74 | 0 | 0.0 | 0.0 | 0.00 | 0.00 | 0.00 | 87 | 1008.9 |
| 20260506094557 | 74 | 0 | 0.0 | 0.0 | 0.00 | 0.00 | 0.00 | 87 | 1008.7 |
| 20260506094044 | 74 | 0 | 0.0 | 0.0 | 0.00 | 0.00 | 0.00 | 87 | 1008.8 |
| 20260506093547 | 74 | 0 | 0.0 | 0.0 | 0.00 | 0.00 | 0.00 | 87 | 1008.8 |
| 20260506093054 | 74 | 0 | 0.0 | 0.0 | 0.00 | 0.00 | 0.00 | 87 | 1008.9 |
| 20260506092548 | 74 | 0 | 0.0 | 0.0 | 0.00 | 0.00 | 0.00 | 87 | 1008.8 |
| 20260506092045 | 74 | 0 | 0.0 | 0.0 | 0.00 | 0.00 | 0.00 | 87 | 1009.0 |
| 20260506091551 | 74 | 0 | 0.0 | 0.0 | 0.00 | 0.00 | 0.00 | 87 | 1008.9 |
| 20260506091047 | 74 | 0 | 0.0 | 0.0 | 0.00 | 0.00 | 0.00 | 87 | 1008.9 |
| 20260506090548 | 74 | 0 | 0.0 | 0.0 | 0.00 | 0.00 | 0.00 | 87 | 1008.8 |
| 20260506090051 | 74 | 0 | 0.0 | 0.0 | 0.00 | 0.00 | 0.00 | 87 | 1008.8 |
| 20260506085650 | 74 | 0 | 0.0 | 0.0 | 0.00 | 0.00 | 0.00 | 87 | 1009.0 |
| 20260506085047 | 74 | 0 | 0.0 | 0.0 | 0.00 | 0.00 | 0.00 | 87 | 1008.9 |
| 20260506084553 | 75 | 0 | 0.0 | 0.0 | 0.00 | 0.00 | 0.00 | 87 | 1008.8 |
| 20260506084044 | 75 | 0 | 0.0 | 0.0 | 0.00 | 0.00 | 0.00 | 87 | 1008.8 |
| 20260506083547 | 75 | 0 | 0.0 | 0.0 | 0.00 | 0.00 | 0.00 | 87 | 1008.9 |
| 20260506083054 | 75 | 0 | 0.0 | 0.0 | 0.00 | 0.00 | 0.00 | 87 | 1009.0 |
| 20260506082551 | 75 | 0 | 0.0 | 4.0 | 0.00 | 0.00 | 0.00 | 87 | 1008.9 |
| 20260506082053 | 75 | 0 | 0.0 | 4.0 | 0.00 | 0.00 | 0.00 | 87 | 1008.9 |
| 20260506081549 | 75 | 0 | 0.0 | 4.0 | 0.00 | 0.00 | 0.00 | 86 | 1008.9 |
| 20260506081048 | 75 | 0 | 0.0 | 0.0 | 0.00 | 0.00 | 0.00 | 86 | 1009.1 |
| 20260506080545 | 75 | 0 | 0.0 | 0.0 | 0.00 | 0.00 | 0.00 | 86 | 1009.0 |
| 20260506073100 | 75 | 0 | 0.0 | 0.0 | 0.00 | 0.00 | 0.00 | 86 | 1009.1 |
| 20260506072546 | 75 | 0 | 0.0 | 0.0 | 0.00 | 0.00 | 0.00 | 86 | 1009.2 |
| 20260506072048 | 75 | 0 | 0.0 | 0.0 | 0.00 | 0.00 | 0.00 | 86 | 1009.2 |
| 20260506071609 | 75 | 0 | 0.0 | 0.0 | 0.00 | 0.00 | 0.00 | 85 | 1009.0 |
| 20260506071050 | 75 | 0 | 0.0 | 0.0 | 0.00 | 0.00 | 0.00 | 85 | 1009.1 |
| 20260506070545 | 75 | 0 | 0.0 | 0.0 | 0.00 | 0.00 | 0.00 | 85 | 1009.3 |
| 20260506070104 | 75 | 0 | 0.0 | 0.0 | 0.00 | 0.00 | 0.00 | 85 | 1009.2 |
| 20260506062045 | 75 | 0 | 0.0 | 0.0 | 0.00 | 0.00 | 0.00 | 85 | 1009.0 |
| 20260506061554 | 75 | 0 | 0.0 | 0.0 | 0.00 | 0.00 | 0.00 | 84 | 1009.0 |
| 20260506061047 | 75 | 0 | 0.0 | 0.0 | 0.00 | 0.00 | 0.00 | 84 | 1008.8 |
| 20260506060546 | 75 | 0 | 0.0 | 0.0 | 0.00 | 0.00 | 0.00 | 84 | 1008.8 |
| 20260506051048 | 76 | 254 | 0.0 | 6.0 | 0.00 | 0.00 | 0.00 | 83 | 1008.8 |
| 20260506050545 | 76 | 0 | 0.0 | 6.0 | 0.00 | 0.00 | 0.00 | 83 | 1008.8 |
| 20260506045044 | 77 | 0 | 0.0 | 5.0 | 0.00 | 0.00 | 0.00 | 82 | 1008.7 |
| 20260506044555 | 77 | 0 | 0.0 | 4.0 | 0.00 | 0.00 | 0.00 | 82 | 1008.9 |
| 20260506044048 | 77 | 0 | 0.0 | 5.0 | 0.00 | 0.00 | 0.00 | 82 | 1008.8 |
| 20260506043547 | 77 | 0 | 1.0 | 5.0 | 0.00 | 0.00 | 0.00 | 82 | 1008.9 |
| 20260506043050 | 77 | 0 | 0.0 | 7.0 | 0.00 | 0.00 | 0.00 | 82 | 1008.8 |
| 20260506042544 | 77 | 0 | 2.0 | 7.0 | 0.00 | 0.00 | 0.00 | 82 | 1008.8 |
| 20260506042045 | 77 | 0 | 1.0 | 8.0 | 0.00 | 0.00 | 0.00 | 82 | 1008.8 |
| 20260506041603 | 77 | 0 | 0.0 | 9.0 | 0.00 | 0.00 | 0.00 | 81 | 1008.8 |
| 20260506041044 | 77 | 257 | 1.0 | 9.0 | 0.00 | 0.00 | 0.00 | 81 | 1008.5 |
| 20260506040545 | 77 | 263 | 2.0 | 9.0 | 0.00 | 0.00 | 0.00 | 81 | 1008.2 |
| 20260506040053 | 77 | 0 | 4.0 | 9.0 | 0.00 | 0.00 | 0.00 | 81 | 1008.0 |
| 20260506035547 | 77 | 239 | 2.0 | 8.0 | 0.00 | 0.00 | 0.00 | 81 | 1007.9 |
| 20260506035047 | 77 | 267 | 2.0 | 8.0 | 0.00 | 0.00 | 0.00 | 82 | 1007.7 |
| 20260506034549 | 77 | 0 | 1.0 | 12.0 | 0.00 | 0.00 | 0.00 | 81 | 1007.8 |
| 20260506034044 | 77 | 213 | 1.0 | 12.0 | 0.00 | 0.00 | 0.00 | 81 | 1007.8 |
| 20260506033549 | 77 | 219 | 4.0 | 12.0 | 0.00 | 0.00 | 0.00 | 81 | 1007.6 |
| 20260506033048 | 77 | 230 | 0.0 | 9.0 | 0.00 | 0.00 | 0.00 | 81 | 1007.6 |
| 20260506032545 | 78 | 0 | 2.0 | 9.0 | 0.00 | 0.00 | 0.00 | 81 | 1007.5 |
| 20260506032045 | 78 | 0 | 1.0 | 9.0 | 0.00 | 0.00 | 0.00 | 81 | 1007.4 |
| 20260506031556 | 78 | 257 | 1.0 | 8.0 | 0.00 | 0.00 | 0.00 | 81 | 1007.5 |
| 20260506031045 | 78 | 219 | 2.0 | 7.0 | 0.00 | 0.00 | 0.00 | 81 | 1007.5 |
| 20260506030550 | 78 | 0 | 0.0 | 5.0 | 0.00 | 0.00 | 0.00 | 81 | 1007.6 |
| 20260506030050 | 78 | 0 | 0.0 | 5.0 | 0.00 | 0.00 | 0.00 | 81 | 1007.6 |
| 20260506025548 | 78 | 0 | 0.0 | 8.0 | 0.00 | 0.00 | 0.00 | 81 | 1007.4 |
| 20260506025044 | 78 | 0 | 2.0 | 8.0 | 0.00 | 0.00 | 0.00 | 81 | 1007.3 |
| 20260506024555 | 78 | 0 | 0.0 | 6.0 | 0.00 | 0.00 | 0.00 | 80 | 1007.3 |
| 20260506024045 | 78 | 0 | 0.0 | 8.0 | 0.00 | 0.00 | 0.00 | 80 | 1007.3 |
| 20260506023547 | 78 | 245 | 2.0 | 8.0 | 0.00 | 0.00 | 0.00 | 80 | 1007.1 |
| 20260506023100 | 79 | 255 | 1.0 | 8.0 | 0.00 | 0.00 | 0.00 | 80 | 1007.1 |
| 20260506022545 | 79 | 256 | 1.0 | 5.0 | 0.00 | 0.00 | 0.00 | 80 | 1007.1 |
| 20260506022045 | 79 | 0 | 0.0 | 0.0 | 0.00 | 0.00 | 0.00 | 79 | 1007.1 |
| 20260506021557 | 79 | 0 | 0.0 | 0.0 | 0.00 | 0.00 | 0.00 | 79 | 1007.1 |
| 20260506021045 | 79 | 0 | 0.0 | 0.0 | 0.00 | 0.00 | 0.00 | 79 | 1007.1 |
| 20260506020544 | 80 | 0 | 0.0 | 0.0 | 0.00 | 0.00 | 0.00 | 79 | 1007.0 |
| 20260506020054 | 80 | 0 | 0.0 | 0.0 | 0.00 | 0.00 | 0.00 | 79 | 1007.0 |
| 20260506015547 | 80 | 0 | 0.0 | 0.0 | 0.00 | 0.00 | 0.00 | 78 | 1007.1 |
| 20260506015044 | 80 | 0 | 0.0 | 3.0 | 0.00 | 0.00 | 0.00 | 78 | 1007.0 |
| 20260506014557 | 80 | 0 | 0.0 | 3.0 | 0.00 | 0.00 | 0.00 | 78 | 1007.0 |
| 20260506014044 | 80 | 0 | 0.0 | 2.0 | 0.00 | 0.00 | 0.00 | 78 | 1007.0 |
| 20260506013547 | 81 | 0 | 0.0 | 2.0 | 0.00 | 0.00 | 0.00 | 78 | 1006.8 |
| 20260506013052 | 81 | 0 | 0.0 | 0.0 | 0.00 | 0.00 | 0.00 | 77 | 1006.8 |
| 20260506012545 | 81 | 0 | 0.0 | 0.0 | 0.00 | 0.00 | 0.00 | 77 | 1006.7 |
| 20260506012044 | 81 | 0 | 0.0 | 0.0 | 0.00 | 0.00 | 0.00 | 76 | 1006.5 |
| 20260506011552 | 81 | 0 | 0.0 | 0.0 | 0.00 | 0.00 | 0.00 | 76 | 1006.5 |
| 20260506011045 | 82 | 0 | 0.0 | 0.0 | 0.00 | 0.00 | 0.00 | 76 | 1006.4 |
| 20260506010546 | 82 | 0 | 0.0 | 0.0 | 0.00 | 0.00 | 0.00 | 75 | 1006.2 |
| 20260506010050 | 82 | 0 | 0.0 | 0.0 | 0.00 | 0.00 | 0.00 | 75 | 1006.2 |
| 20260506005545 | 82 | 0 | 0.0 | 0.0 | 0.00 | 0.00 | 0.00 | 75 | 1006.2 |
| 20260506005044 | 83 | 0 | 0.0 | 0.0 | 0.00 | 0.00 | 0.00 | 75 | 1006.2 |
| 20260506004558 | 83 | 0 | 0.0 | 0.0 | 0.00 | 0.00 | 0.00 | 74 | 1006.1 |
| 20260506004044 | 83 | 0 | 0.0 | 0.0 | 0.00 | 0.00 | 0.00 | 74 | 1006.0 |
| 20260506003544 | 83 | 0 | 0.0 | 0.0 | 0.00 | 0.00 | 0.00 | 74 | 1006.0 |
| 20260506003053 | 83 | 0 | 0.0 | 0.0 | 0.00 | 0.00 | 0.00 | 74 | 1006.0 |
| 20260506002547 | 83 | 0 | 0.0 | 0.0 | 0.00 | 0.00 | 0.00 | 73 | 1005.9 |
| 20260506002044 | 84 | 0 | 0.0 | 0.0 | 0.00 | 0.00 | 0.00 | 73 | 1005.9 |
| 20260506001614 | 84 | 0 | 0.0 | 0.0 | 0.00 | 0.00 | 0.00 | 73 | 1006.0 |
| 20260506001045 | 84 | 0 | 0.0 | 0.0 | 0.00 | 0.00 | 0.00 | 73 | 1005.8 |
| 20260506000545 | 84 | 0 | 0.0 | 0.0 | 0.00 | 0.00 | 0.00 | 72 | 1005.6 |
| 20260506000054 | 84 | 0 | 0.0 | 0.0 | 0.00 | 0.00 | 0.00 | 72 | 1005.8 |
| 20260505235546 | 84 | 0 | 0.0 | 0.0 | 0.00 | 0.00 | 0.00 | 72 | 1005.7 |
| 20260505235048 | 84 | 0 | 0.0 | 5.0 | 0.00 | 0.00 | 0.00 | 72 | 1005.6 |
| 20260505234556 | 84 | 0 | 0.0 | 6.0 | 0.00 | 0.00 | 0.00 | 71 | 1005.7 |
| 20260505234047 | 84 | 262 | 1.0 | 6.0 | 0.00 | 0.00 | 0.00 | 71 | 1005.6 |
| 20260505233548 | 84 | 259 | 0.0 | 5.0 | 0.00 | 0.00 | 0.00 | 71 | 1005.6 |
| 20260505233056 | 84 | 0 | 0.0 | 0.0 | 0.00 | 0.00 | 0.00 | 71 | 1005.6 |
| 20260505232544 | 84 | 0 | 0.0 | 8.0 | 0.00 | 0.00 | 0.00 | 71 | 1005.5 |
| 20260505232044 | 84 | 0 | 2.0 | 8.0 | 0.00 | 0.00 | 0.00 | 70 | 1005.5 |
| 20260505231556 | 84 | 256 | 2.0 | 8.0 | 0.00 | 0.00 | 0.00 | 70 | 1005.4 |
| 20260505231046 | 84 | 0 | 0.0 | 7.0 | 0.00 | 0.00 | 0.00 | 71 | 1005.5 |
| 20260505230545 | 84 | 0 | 0.0 | 12.0 | 0.00 | 0.00 | 0.00 | 71 | 1005.6 |
| 20260505230113 | 84 | 258 | 2.0 | 12.0 | 0.00 | 0.00 | 0.00 | 71 | 1005.4 |
| 20260505225547 | 84 | 267 | 2.0 | 10.0 | 0.00 | 0.00 | 0.00 | 71 | 1005.3 |
| 20260505225045 | 85 | 250 | 3.0 | 10.0 | 0.00 | 0.00 | 0.00 | 71 | 1005.5 |
| 20260505224552 | 84 | 262 | 2.0 | 9.0 | 0.00 | 0.00 | 0.00 | 72 | 1005.7 |
| 20260505224044 | 84 | 262 | 0.0 | 8.0 | 0.00 | 0.00 | 0.00 | 72 | 1005.7 |
| 20260505223544 | 84 | 0 | 0.0 | 8.0 | 0.00 | 0.00 | 0.00 | 72 | 1005.6 |
| 20260505223059 | 84 | 272 | 1.0 | 8.0 | 0.00 | 0.00 | 0.00 | 71 | 1005.6 |
| 20260505222544 | 84 | 0 | 0.0 | 8.0 | 0.00 | 0.00 | 0.00 | 72 | 1005.6 |
| 20260505222044 | 84 | 284 | 2.0 | 8.0 | 0.00 | 0.00 | 0.00 | 71 | 1005.6 |
| 20260505221558 | 84 | 0 | 2.0 | 7.0 | 0.00 | 0.00 | 0.00 | 71 | 1005.5 |
| 20260505221049 | 84 | 226 | 3.0 | 7.0 | 0.00 | 0.00 | 0.00 | 70 | 1005.6 |
| 20260505220547 | 85 | 285 | 2.0 | 10.0 | 0.00 | 0.00 | 0.00 | 70 | 1005.7 |
| 20260505220100 | 85 | 260 | 3.0 | 10.0 | 0.00 | 0.00 | 0.00 | 70 | 1005.8 |
| 20260505215546 | 85 | 276 | 5.0 | 14.0 | 0.00 | 0.00 | 0.00 | 70 | 1005.9 |
| 20260505215045 | 85 | 261 | 4.0 | 14.0 | 0.00 | 0.00 | 0.00 | 70 | 1006.0 |
| 20260505214604 | 85 | 266 | 5.0 | 14.0 | 0.00 | 0.00 | 0.00 | 70 | 1006.0 |
| 20260505214045 | 84 | 263 | 4.0 | 11.0 | 0.00 | 0.00 | 0.00 | 71 | 1006.0 |
| 20260505213544 | 84 | 272 | 5.0 | 11.0 | 0.00 | 0.00 | 0.00 | 70 | 1006.2 |
| 20260505213057 | 85 | 266 | 4.0 | 10.0 | 0.00 | 0.00 | 0.00 | 70 | 1006.2 |
| 20260505212544 | 85 | 252 | 3.0 | 10.0 | 0.00 | 0.00 | 0.00 | 70 | 1006.2 |
| 20260505212045 | 85 | 0 | 2.0 | 10.0 | 0.00 | 0.00 | 0.00 | 70 | 1006.3 |
| 20260505211553 | 85 | 262 | 3.0 | 9.0 | 0.00 | 0.00 | 0.00 | 71 | 1006.4 |
| 20260505211046 | 85 | 257 | 1.0 | 11.0 | 0.00 | 0.00 | 0.00 | 71 | 1006.5 |
| 20260505210544 | 85 | 0 | 4.0 | 11.0 | 0.00 | 0.00 | 0.00 | 71 | 1006.5 |
| 20260505210056 | 85 | 262 | 0.0 | 13.0 | 0.00 | 0.00 | 0.00 | 72 | 1006.6 |
| 20260505205545 | 84 | 274 | 2.0 | 13.0 | 0.00 | 0.00 | 0.00 | 72 | 1006.5 |
| 20260505205047 | 84 | 270 | 5.0 | 14.0 | 0.00 | 0.00 | 0.00 | 70 | 1006.5 |
| 20260505204550 | 85 | 278 | 5.0 | 14.0 | 0.00 | 0.00 | 0.00 | 71 | 1006.5 |
| 20260505204044 | 85 | 269 | 3.0 | 11.0 | 0.00 | 0.00 | 0.00 | 71 | 1006.5 |
| 20260505203545 | 85 | 0 | 1.0 | 11.0 | 0.00 | 0.00 | 0.00 | 71 | 1006.5 |
| 20260505203051 | 85 | 262 | 4.0 | 9.0 | 0.00 | 0.00 | 0.00 | 70 | 1006.5 |
| 20260505202547 | 85 | 265 | 3.0 | 9.0 | 0.00 | 0.00 | 0.00 | 71 | 1006.6 |
| 20260505202051 | 85 | 259 | 3.0 | 13.0 | 0.00 | 0.00 | 0.00 | 72 | 1006.7 |
| 20260505201557 | 85 | 268 | 6.0 | 16.0 | 0.00 | 0.00 | 0.00 | 71 | 1006.7 |
| 20260505201045 | 84 | 311 | 8.0 | 16.0 | 0.00 | 0.00 | 0.00 | 71 | 1006.7 |
| 20260505200545 | 84 | 0 | 3.0 | 10.0 | 0.00 | 0.00 | 0.00 | 73 | 1006.7 |
| 20260505200052 | 84 | 279 | 5.0 | 10.0 | 0.00 | 0.00 | 0.00 | 73 | 1006.8 |
| 20260505195544 | 83 | 285 | 5.0 | 14.0 | 0.00 | 0.00 | 0.00 | 73 | 1006.9 |
| 20260505195046 | 83 | 288 | 5.0 | 14.0 | 0.00 | 0.00 | 0.00 | 74 | 1006.9 |
| 20260505194555 | 82 | 307 | 7.0 | 14.0 | 0.00 | 0.00 | 0.00 | 73 | 1006.9 |
| 20260505194044 | 82 | 268 | 5.0 | 16.0 | 0.00 | 0.00 | 0.00 | 74 | 1007.0 |
| 20260505193548 | 82 | 272 | 6.0 | 16.0 | 0.00 | 0.00 | 0.00 | 73 | 1007.1 |
| 20260505193051 | 82 | 280 | 6.0 | 16.0 | 0.00 | 0.00 | 0.00 | 72 | 1007.1 |
| 20260505192546 | 82 | 285 | 7.0 | 15.0 | 0.00 | 0.00 | 0.00 | 73 | 1007.2 |
| 20260505192045 | 82 | 276 | 7.0 | 17.0 | 0.00 | 0.00 | 0.00 | 73 | 1007.2 |
| 20260505191556 | 82 | 288 | 9.0 | 17.0 | 0.00 | 0.00 | 0.00 | 74 | 1007.2 |
| 20260505191046 | 82 | 265 | 7.0 | 15.0 | 0.00 | 0.00 | 0.00 | 73 | 1007.3 |
| 20260505190544 | 82 | 302 | 7.0 | 16.0 | 0.00 | 0.00 | 0.00 | 75 | 1007.3 |
| 20260505190113 | 81 | 300 | 5.0 | 16.0 | 0.00 | 0.00 | 0.00 | 75 | 1007.4 |
| 20260505185545 | 81 | 259 | 6.0 | 16.0 | 0.00 | 0.00 | 0.00 | 76 | 1007.5 |
| 20260505185046 | 81 | 246 | 6.0 | 16.0 | 0.00 | 0.00 | 0.00 | 76 | 1007.5 |
| 20260505184604 | 81 | 326 | 8.0 | 16.0 | 0.00 | 0.00 | 0.00 | 76 | 1007.4 |
| 20260505184046 | 80 | 288 | 7.0 | 16.0 | 0.00 | 0.00 | 0.00 | 76 | 1007.5 |
| 20260505183545 | 80 | 296 | 6.0 | 15.0 | 0.00 | 0.00 | 0.00 | 77 | 1007.5 |
| 20260505183055 | 80 | 250 | 7.0 | 15.0 | 0.00 | 0.00 | 0.00 | 77 | 1007.6 |
| 20260505182547 | 79 | 259 | 7.0 | 13.0 | 0.00 | 0.00 | 0.00 | 77 | 1007.6 |
| 20260505182049 | 79 | 285 | 4.0 | 12.0 | 0.00 | 0.00 | 0.00 | 78 | 1007.6 |
| 20260505181553 | 79 | 263 | 6.0 | 12.0 | 0.00 | 0.00 | 0.00 | 78 | 1007.8 |
| 20260505181050 | 79 | 259 | 5.0 | 12.0 | 0.00 | 0.00 | 0.00 | 78 | 1007.7 |
| 20260505180548 | 79 | 264 | 5.0 | 12.0 | 0.00 | 0.00 | 0.00 | 78 | 1008.0 |
| 20260505180058 | 79 | 257 | 5.0 | 12.0 | 0.00 | 0.00 | 0.00 | 79 | 1008.0 |
| 20260505175548 | 78 | 305 | 4.0 | 10.0 | 0.00 | 0.00 | 0.00 | 80 | 1008.0 |
| 20260505175048 | 78 | 276 | 4.0 | 12.0 | 0.00 | 0.00 | 0.00 | 80 | 1008.1 |
| 20260505174615 | 77 | 0 | 2.0 | 12.0 | 0.00 | 0.00 | 0.00 | 80 | 1008.0 |
| 20260505174159 | 77 | 302 | 5.0 | 11.0 | 0.00 | 0.00 | 0.00 | 80 | 1008.1 |
| 20260505174119 | 77 | 302 | 5.0 | 11.0 | 0.00 | 0.00 | 0.00 | 80 | 1008.1 |
| 20260505174047 | 77 | 302 | 5.0 | 11.0 | 0.00 | 0.00 | 0.00 | 80 | 1008.1 |
| 20260505173548 | 77 | 284 | 1.0 | 8.0 | 0.00 | 0.00 | 0.00 | 81 | 1008.2 |
| 20260505173053 | 77 | 0 | 3.0 | 8.0 | 0.00 | 0.00 | 0.00 | 80 | 1008.1 |
| 20260505172547 | 77 | 225 | 0.0 | 10.0 | 0.00 | 0.00 | 0.00 | 81 | 1008.2 |
| 20260505172136 | 77 | 0 | 2.0 | 10.0 | 0.00 | 0.00 | 0.00 | 80 | 1008.2 |
| 20260505172044 | 77 | 0 | 2.0 | 10.0 | 0.00 | 0.00 | 0.00 | 80 | 1008.2 |
| 20260505171551 | 76 | 259 | 5.0 | 10.0 | 0.00 | 0.00 | 0.00 | 80 | 1008.2 |
| 20260505171046 | 76 | 269 | 5.0 | 10.0 | 0.00 | 0.00 | 0.00 | 81 | 1008.3 |
| 20260505170544 | 76 | 293 | 4.0 | 10.0 | 0.00 | 0.00 | 0.00 | 81 | 1008.3 |
| 20260505170104 | 76 | 290 | 4.0 | 11.0 | 0.00 | 0.00 | 0.00 | 81 | 1008.4 |
| 20260505165544 | 76 | 233 | 1.0 | 11.0 | 0.00 | 0.00 | 0.00 | 81 | 1008.4 |
| 20260505165044 | 76 | 266 | 5.0 | 11.0 | 0.00 | 0.00 | 0.00 | 81 | 1008.3 |
| 20260505164557 | 76 | 286 | 6.0 | 10.0 | 0.00 | 0.00 | 0.00 | 81 | 1008.3 |
| 20260505164044 | 76 | 265 | 5.0 | 12.0 | 0.00 | 0.00 | 0.00 | 81 | 1008.4 |
| 20260505163548 | 76 | 295 | 4.0 | 12.0 | 0.00 | 0.00 | 0.00 | 82 | 1008.3 |
| 20260505163058 | 76 | 282 | 4.0 | 10.0 | 0.00 | 0.00 | 0.00 | 82 | 1008.2 |
| 20260505162544 | 75 | 274 | 5.0 | 14.0 | 0.00 | 0.00 | 0.00 | 82 | 1008.3 |
| 20260505162045 | 75 | 271 | 4.0 | 14.0 | 0.00 | 0.00 | 0.00 | 82 | 1008.3 |
| 20260505161553 | 75 | 253 | 5.0 | 14.0 | 0.00 | 0.00 | 0.00 | 82 | 1008.4 |
| 20260505161045 | 75 | 259 | 1.0 | 9.0 | 0.00 | 0.00 | 0.00 | 83 | 1008.3 |
| 20260505160550 | 74 | 281 | 3.0 | 9.0 | 0.00 | 0.00 | 0.00 | 82 | 1008.4 |
| 20260505153110 | 74 | 257 | 4.0 | 10.0 | 0.00 | 0.00 | 0.00 | 82 | 1008.2 |
| 20260505152544 | 74 | 259 | 3.0 | 11.0 | 0.00 | 0.00 | 0.00 | 82 | 1008.2 |
| 20260505152048 | 74 | 271 | 5.0 | 11.0 | 0.00 | 0.00 | 0.00 | 82 | 1008.2 |
| 20260505151556 | 73 | 260 | 3.0 | 10.0 | 0.00 | 0.00 | 0.00 | 82 | 1008.2 |
| 20260505151044 | 73 | 265 | 4.0 | 10.0 | 0.00 | 0.00 | 0.00 | 82 | 1008.2 |
| 20260505150546 | 73 | 290 | 3.0 | 11.0 | 0.00 | 0.00 | 0.00 | 82 | 1008.1 |
| 20260505150113 | 73 | 254 | 5.0 | 11.0 | 0.00 | 0.00 | 0.00 | 82 | 1008.2 |
| 20260505140544 | 72 | 287 | 3.0 | 9.0 | 0.00 | 0.00 | 0.00 | 82 | 1008.3 |
| 20260505140105 | 72 | 295 | 5.0 | 9.0 | 0.00 | 0.00 | 0.00 | 82 | 1008.3 |